User: anonymous   Login
Location: Donald C. Martin Observatory
(38.3885°N, 82.3916°W)
Time: 22:26:10
(UTC-04:00)
Language:

Cosmos 1484 Rocket - Orbit

View from above orbital plane
View from above orbital plane
View from above satellite
View from above satellite

Ground track
Ground track

The orbit data is extracted from the following two-line orbital elements,

1 14208U 83075B   15149.26586573  .00000923  00000-0  61421-4 0  9992
2 14208 097.3857 178.5101 0040570 192.9341 167.0852 15.08889023734359
Epoch (UTC): 29 May 2015 06:22:50
Eccentricity: 0.0040570
inclination: 97.3857°
perigee height: 511 km
apogee height: 567 km
right ascension of ascending node: 178.5101°
argument of perigee: 192.9341°
revolutions per day: 15.08889023
mean anomaly at epoch: 167.0852°
orbit number at epoch: 73435

The dashed part of the orbit path shows where the satellite is in the earth's shadow,  

DLR